Time,TemperatureF,DewpointF,PressureIn,WindDirection,WindDirectionDegrees,WindSpeedMPH,WindSpeedGustMPH,Humidity,HourlyPrecipIn,Conditions,Clouds,dailyrainin,SoftwareType,DateUTC
2013-01-20 00:01:00,-999.0,-99.9,30.56,North,-999,-999.0,-999.0,-999,-99.99,,,0.00,weatherlink.com 1.10,2013-01-20 07:01:00,
2013-01-20 00:16:00,9.3,2.0,30.64,WSW,253,0.0,-999.0,71,-99.99,,,0.00,weatherlink.com 1.10,2013-01-20 07:16:00,
2013-01-20 00:31:00,9.0,1.0,30.64,WSW,253,0.0,-999.0,71,-99.99,,,0.00,weatherlink.com 1.10,2013-01-20 07:31:00,
2013-01-20 00:46:00,8.8,1.0,30.64,WSW,253,0.0,-999.0,71,-99.99,,,0.00,weatherlink.com 1.10,2013-01-20 07:46:00,
2013-01-20 01:01:00,8.4,1.0,30.64,WSW,253,0.0,-999.0,72,-99.99,,,0.00,weatherlink.com 1.10,2013-01-20 08:01:00,
2013-01-20 01:16:00,8.1,1.0,30.63,WSW,253,0.0,-999.0,72,-99.99,,,0.00,weatherlink.com 1.10,2013-01-20 08:16:00,
2013-01-20 01:31:00,7.9,1.0,30.63,WSW,253,0.0,-999.0,72,-99.99,,,0.00,weatherlink.com 1.10,2013-01-20 08:31:00,
2013-01-20 01:46:00,7.6,0.0,30.63,WSW,253,0.0,-999.0,72,-99.99,,,0.00,weatherlink.com 1.10,2013-01-20 08:46:00,
2013-01-20 02:01:00,7.2,0.0,30.64,WSW,253,0.0,-999.0,72,-99.99,,,0.00,weatherlink.com 1.10,2013-01-20 09:01:00,
2013-01-20 02:16:00,7.6,1.0,30.63,WSW,253,0.0,-999.0,73,-99.99,,,0.00,weatherlink.com 1.10,2013-01-20 09:16:00,
2013-01-20 02:31:00,7.2,0.0,30.63,WSW,253,0.0,-999.0,73,-99.99,,,0.00,weatherlink.com 1.10,2013-01-20 09:31:00,
2013-01-20 02:46:00,7.0,0.0,30.63,WSW,253,0.0,-999.0,74,-99.99,,,0.00,weatherlink.com 1.10,2013-01-20 09:46:00,
2013-01-20 03:01:00,6.9,0.0,30.64,WSW,253,0.0,-999.0,74,-99.99,,,0.00,weatherlink.com 1.10,2013-01-20 10:01:00,
2013-01-20 03:16:00,6.5,0.0,30.62,WSW,253,0.0,-999.0,74,-99.99,,,0.00,weatherlink.com 1.10,2013-01-20 10:16:00,
2013-01-20 03:31:00,6.5,0.0,30.62,WSW,253,0.0,-999.0,74,-99.99,,,0.00,weatherlink.com 1.10,2013-01-20 10:31:00,
2013-01-20 03:46:00,6.0,-1.0,30.63,WSW,253,0.0,-999.0,74,-99.99,,,0.00,weatherlink.com 1.10,2013-01-20 10:46:00,
2013-01-20 04:01:00,5.8,-1.0,30.62,WSW,253,0.0,-999.0,75,-99.99,,,0.00,weatherlink.com 1.10,2013-01-20 11:01:00,
2013-01-20 04:16:00,5.8,-1.0,30.65,WSW,253,0.0,-999.0,75,-99.99,,,0.00,weatherlink.com 1.10,2013-01-20 11:16:00,
2013-01-20 04:32:00,5.4,-1.0,30.65,WSW,253,0.0,-999.0,74,-99.99,,,0.00,weatherlink.com 1.10,2013-01-20 11:32:00,
2013-01-20 04:47:00,5.2,-1.0,30.65,WSW,253,0.0,-999.0,74,-99.99,,,0.00,weatherlink.com 1.10,2013-01-20 11:47:00,
2013-01-20 05:02:00,5.2,-1.0,30.65,WSW,253,0.0,-999.0,75,-99.99,,,0.00,weatherlink.com 1.10,2013-01-20 12:02:00,
2013-01-20 05:17:00,5.2,-1.0,30.67,WSW,253,0.0,-999.0,74,-99.99,,,0.00,weatherlink.com 1.10,2013-01-20 12:17:00,
2013-01-20 05:32:00,5.0,-2.0,30.67,WSW,253,0.0,-999.0,74,-99.99,,,0.00,weatherlink.com 1.10,2013-01-20 12:32:00,
2013-01-20 05:47:00,-999.0,-99.9,30.56,North,-999,-999.0,-999.0,-999,-99.99,,,0.00,weatherlink.com 1.10,2013-01-20 12:47:00,
2013-01-20 06:02:00,-999.0,-99.9,30.56,North,-999,-999.0,-999.0,-999,-99.99,,,0.00,weatherlink.com 1.10,2013-01-20 13:02:00,
2013-01-20 06:17:00,-999.0,-99.9,30.24,North,-999,-999.0,-999.0,-999,-99.99,,,0.00,weatherlink.com 1.10,2013-01-20 13:17:00,
2013-01-20 06:32:00,-999.0,-99.9,30.24,North,-999,-999.0,-999.0,-999,-99.99,,,0.00,weatherlink.com 1.10,2013-01-20 13:32:00,
2013-01-20 06:47:00,-999.0,-99.9,30.24,North,-999,-999.0,-999.0,-999,-99.99,,,0.00,weatherlink.com 1.10,2013-01-20 13:47:00,
2013-01-20 07:02:00,-999.0,-99.9,30.24,North,-999,-999.0,-999.0,-999,-99.99,,,0.00,weatherlink.com 1.10,2013-01-20 14:02:00,
2013-01-20 07:17:00,-999.0,-99.9,30.24,North,-999,-999.0,-999.0,-999,-99.99,,,0.00,weatherlink.com 1.10,2013-01-20 14:17:00,
2013-01-20 07:32:00,-999.0,-99.9,30.25,North,-999,-999.0,-999.0,-999,-99.99,,,0.00,weatherlink.com 1.10,2013-01-20 14:32:00,
2013-01-20 07:47:00,-999.0,-99.9,30.25,North,-999,-999.0,-999.0,-999,-99.99,,,0.00,weatherlink.com 1.10,2013-01-20 14:47:00,
2013-01-20 08:03:00,-999.0,-99.9,30.26,North,-999,-999.0,-999.0,-999,-99.99,,,0.00,weatherlink.com 1.10,2013-01-20 15:03:00,
2013-01-20 08:18:00,4.8,-2.0,30.79,WSW,253,0.0,-999.0,74,-99.99,,,0.00,weatherlink.com 1.10,2013-01-20 15:18:00,
2013-01-20 08:33:00,6.7,0.0,30.77,WSW,253,0.0,-999.0,73,-99.99,,,0.00,weatherlink.com 1.10,2013-01-20 15:33:00,
2013-01-20 08:48:00,8.3,1.0,30.76,WSW,253,0.0,-999.0,72,-99.99,,,0.00,weatherlink.com 1.10,2013-01-20 15:48:00,
2013-01-20 09:03:00,9.7,2.0,30.75,WSW,253,0.0,-999.0,72,-99.99,,,0.00,weatherlink.com 1.10,2013-01-20 16:03:00,
2013-01-20 09:18:00,10.9,4.0,30.73,WSW,253,0.0,-999.0,72,-99.99,,,0.00,weatherlink.com 1.10,2013-01-20 16:18:00,
2013-01-20 09:33:00,12.6,4.0,30.73,WSW,253,0.0,-999.0,69,-99.99,,,0.00,weatherlink.com 1.10,2013-01-20 16:33:00,
2013-01-20 09:48:00,13.5,4.0,30.71,WSW,253,0.0,-999.0,67,-99.99,,,0.00,weatherlink.com 1.10,2013-01-20 16:48:00,
2013-01-20 10:03:00,14.3,4.0,30.72,WSW,253,3.0,-999.0,65,-99.99,,,0.00,weatherlink.com 1.10,2013-01-20 17:03:00,
2013-01-20 10:18:00,14.8,5.0,30.71,WSW,253,1.0,-999.0,64,-99.99,,,0.00,weatherlink.com 1.10,2013-01-20 17:18:00,
2013-01-20 10:33:00,16.1,5.0,30.71,WSW,253,0.0,-999.0,63,-99.99,,,0.00,weatherlink.com 1.10,2013-01-20 17:33:00,
2013-01-20 10:48:00,17.7,6.0,30.70,WSW,253,3.0,-999.0,60,-99.99,,,0.00,weatherlink.com 1.10,2013-01-20 17:48:00,
2013-01-20 11:03:00,18.8,7.0,30.70,WSW,253,0.0,-999.0,59,-99.99,,,0.00,weatherlink.com 1.10,2013-01-20 18:03:00,
2013-01-20 11:18:00,19.7,7.0,30.64,WSW,253,0.0,-999.0,58,-99.99,,,0.00,weatherlink.com 1.10,2013-01-20 18:18:00,
2013-01-20 11:34:00,21.3,8.0,30.61,NNW,331,4.0,-999.0,57,-99.99,,,0.00,weatherlink.com 1.10,2013-01-20 18:34:00,
2013-01-20 11:49:00,22.2,8.0,30.59,NNW,327,0.0,-999.0,55,-99.99,,,0.00,weatherlink.com 1.10,2013-01-20 18:49:00,
2013-01-20 12:04:00,22.7,8.0,30.57,NW,305,0.0,-999.0,54,-99.99,,,0.00,weatherlink.com 1.10,2013-01-20 19:04:00,
2013-01-20 12:19:00,24.7,9.0,30.61,SSW,199,0.0,-999.0,52,-99.99,,,0.00,weatherlink.com 1.10,2013-01-20 19:19:00,
2013-01-20 12:34:00,25.1,9.0,30.61,North,355,0.0,-999.0,51,-99.99,,,0.00,weatherlink.com 1.10,2013-01-20 19:34:00,
2013-01-20 12:49:00,26.1,10.0,30.59,West,274,3.0,-999.0,50,-99.99,,,0.00,weatherlink.com 1.10,2013-01-20 19:49:00,
2013-01-20 13:04:00,27.0,11.0,30.58,West,278,0.0,-999.0,50,-99.99,,,0.00,weatherlink.com 1.10,2013-01-20 20:04:00,
2013-01-20 13:19:00,27.6,11.0,30.57,South,185,3.0,-999.0,49,-99.99,,,0.00,weatherlink.com 1.10,2013-01-20 20:19:00,
2013-01-20 13:34:00,27.9,11.0,30.56,SW,233,2.0,-999.0,49,-99.99,,,0.00,weatherlink.com 1.10,2013-01-20 20:34:00,
2013-01-20 13:49:00,27.9,10.0,30.55,SSE,164,2.0,-999.0,48,-99.99,,,0.00,weatherlink.com 1.10,2013-01-20 20:49:00,
2013-01-20 14:04:00,29.0,11.0,30.54,SSW,208,1.0,-999.0,47,-99.99,,,0.00,weatherlink.com 1.10,2013-01-20 21:04:00,
2013-01-20 14:19:00,29.4,11.0,30.54,SSW,212,0.0,-999.0,46,-99.99,,,0.00,weatherlink.com 1.10,2013-01-20 21:19:00,
2013-01-20 14:34:00,29.5,11.0,30.54,WSW,257,0.0,-999.0,47,-99.99,,,0.00,weatherlink.com 1.10,2013-01-20 21:34:00,
2013-01-20 14:49:00,30.1,12.0,30.54,SW,229,3.0,-999.0,47,-99.99,,,0.00,weatherlink.com 1.10,2013-01-20 21:49:00,
2013-01-20 15:05:00,30.1,12.0,30.53,SW,225,2.0,-999.0,47,-99.99,,,0.00,weatherlink.com 1.10,2013-01-20 22:05:00,
2013-01-20 15:20:00,30.9,12.0,30.52,SW,222,2.0,-999.0,46,-99.99,,,0.00,weatherlink.com 1.10,2013-01-20 22:20:00,
2013-01-20 15:35:00,30.7,13.0,30.52,SSW,195,0.0,-999.0,47,-99.99,,,0.00,weatherlink.com 1.10,2013-01-20 22:35:00,
2013-01-20 15:50:00,30.7,12.0,30.51,SSW,196,0.0,-999.0,46,-99.99,,,0.00,weatherlink.com 1.10,2013-01-20 22:50:00,
2013-01-20 16:05:00,31.3,12.0,30.51,North,351,1.0,-999.0,45,-99.99,,,0.00,weatherlink.com 1.10,2013-01-20 23:05:00,
2013-01-20 16:20:00,31.0,12.0,30.50,WSW,250,0.0,-999.0,46,-99.99,,,0.00,weatherlink.com 1.10,2013-01-20 23:20:00,
2013-01-20 16:35:00,30.1,12.0,30.51,SSW,211,0.0,-999.0,47,-99.99,,,0.00,weatherlink.com 1.10,2013-01-20 23:35:00,
2013-01-20 16:50:00,28.5,12.0,30.51,SSW,211,0.0,-999.0,50,-99.99,,,0.00,weatherlink.com 1.10,2013-01-20 23:50:00,
2013-01-20 17:05:00,27.2,12.0,30.53,SSW,211,0.0,-999.0,52,-99.99,,,0.00,weatherlink.com 1.10,2013-01-21 00:05:00,
2013-01-20 17:20:00,26.1,12.0,30.45,SSW,211,2.0,-999.0,55,-99.99,,,0.00,weatherlink.com 1.10,2013-01-21 00:20:00,
2013-01-20 17:35:00,25.1,12.0,30.44,SSW,211,0.0,-999.0,57,-99.99,,,0.00,weatherlink.com 1.10,2013-01-21 00:35:00,
2013-01-20 17:50:00,23.8,11.0,30.46,SSW,211,0.0,-999.0,58,-99.99,,,0.00,weatherlink.com 1.10,2013-01-21 00:50:00,
2013-01-20 18:05:00,22.5,10.0,30.49,SSW,211,1.0,-999.0,60,-99.99,,,0.00,weatherlink.com 1.10,2013-01-21 01:05:00,
2013-01-20 18:20:00,21.4,9.0,30.50,SSW,211,0.0,-999.0,60,-99.99,,,0.00,weatherlink.com 1.10,2013-01-21 01:20:00,
2013-01-20 18:36:00,20.6,9.0,30.51,SSW,211,1.0,-999.0,62,-99.99,,,0.00,weatherlink.com 1.10,2013-01-21 01:36:00,
2013-01-20 18:51:00,19.9,9.0,30.52,SSW,211,0.0,-999.0,62,-99.99,,,0.00,weatherlink.com 1.10,2013-01-21 01:51:00,
2013-01-20 19:06:00,19.2,8.0,30.53,SSW,211,0.0,-999.0,63,-99.99,,,0.00,weatherlink.com 1.10,2013-01-21 02:06:00,
2013-01-20 19:21:00,18.6,8.0,30.53,SSW,211,0.0,-999.0,63,-99.99,,,0.00,weatherlink.com 1.10,2013-01-21 02:21:00,
2013-01-20 19:36:00,17.8,7.0,30.54,SSW,211,0.0,-999.0,64,-99.99,,,0.00,weatherlink.com 1.10,2013-01-21 02:36:00,
2013-01-20 20:06:00,16.7,7.0,30.57,SSW,211,0.0,-999.0,67,-99.99,,,0.00,weatherlink.com 1.10,2013-01-21 03:06:00,
2013-01-20 20:21:00,15.7,7.0,30.61,SSW,211,0.0,-999.0,67,-99.99,,,0.00,weatherlink.com 1.10,2013-01-21 03:21:00,
2013-01-20 20:51:00,14.6,6.0,30.63,SSW,211,0.0,-999.0,68,-99.99,,,0.00,weatherlink.com 1.10,2013-01-21 03:51:00,
2013-01-20 21:06:00,14.4,6.0,30.63,SSW,211,0.0,-999.0,70,-99.99,,,0.00,weatherlink.com 1.10,2013-01-21 04:06:00,
2013-01-20 21:52:00,14.6,6.0,30.60,SSW,211,0.0,-999.0,70,-99.99,,,0.00,weatherlink.com 1.10,2013-01-21 04:52:00,
2013-01-20 22:07:00,14.4,6.0,30.60,SSW,211,0.0,-999.0,69,-99.99,,,0.00,weatherlink.com 1.10,2013-01-21 05:07:00,
2013-01-20 22:22:00,14.0,6.0,30.59,SSW,211,0.0,-999.0,70,-99.99,,,0.00,weatherlink.com 1.10,2013-01-21 05:22:00,
2013-01-20 22:37:00,13.5,6.0,30.59,SSW,211,0.0,-999.0,71,-99.99,,,0.00,weatherlink.com 1.10,2013-01-21 05:37:00,
2013-01-20 22:52:00,12.8,5.0,30.61,SSW,211,0.0,-999.0,72,-99.99,,,0.00,weatherlink.com 1.10,2013-01-21 05:52:00,
2013-01-20 23:07:00,12.1,4.0,30.61,SSW,211,0.0,-999.0,71,-99.99,,,0.00,weatherlink.com 1.10,2013-01-21 06:07:00,
2013-01-20 23:22:00,11.7,4.0,30.59,SSW,211,0.0,-999.0,72,-99.99,,,0.00,weatherlink.com 1.10,2013-01-21 06:22:00,
2013-01-20 23:37:00,11.7,4.0,30.59,SSW,211,0.0,-999.0,72,-99.99,,,0.00,weatherlink.com 1.10,2013-01-21 06:37:00,
2013-01-20 23:52:00,11.7,5.0,30.59,SSW,211,0.0,-999.0,73,-99.99,,,0.00,weatherlink.com 1.10,2013-01-21 06:52:00,